PBO Station Position Time Series. Reference Frame : NAM14
Format Version,1.1.0
4-character ID,ROCH
Station name,Pinemeadow_SCIGN
Begin Date, 1997-02-14
End Date, 2006-02-27
Release Date, 2021-02-19
Reference position, 33.6110228710 North Latitude, -116.6097705397 East Longitude, 1393.73014 meters elevation,
Date, North (mm), East (mm), Vertical (mm), North Std. Deviation (mm), East Std. Deviation (mm),              Vertical Std. Deviation (mm), Quality,
1997-02-14,0.00, 0.00, 0.00, 2.76, 2.38, 11.88, repro,
1997-02-19,-6.11, -5.44, 27.74, 6.39, 5.87, 25.44, repro,
1997-02-20,-1.83, -0.76, 7.02, 2.67, 2.32, 11.03, repro,
1997-02-21,-4.01, 0.10, -7.94, 3.04, 2.55, 12.37, repro,
1997-02-22,-1.61, 0.05, -5.53, 2.99, 2.54, 12.37, repro,
1997-02-23,-2.46, -2.72, 0.15, 3.18, 2.96, 13.60, repro,
1997-02-24,-1.48, -3.29, 2.17, 2.45, 2.20, 10.03, repro,
1997-02-25,-0.65, -0.78, 4.73, 2.30, 2.09, 9.21, repro,
1997-02-26,-3.13, -3.59, 10.36, 2.48, 2.30, 10.42, repro,
1997-02-27,-4.66, -2.86, -1.67, 2.56, 2.29, 10.44, repro,
1997-02-28,-2.46, -3.45, -1.12, 2.47, 2.14, 9.82, repro,
1997-03-01,-2.37, -0.25, 9.07, 2.42, 2.12, 9.96, repro,
1997-03-02,-0.42, -1.11, 4.87, 2.57, 2.22, 10.74, repro,
1997-03-03,-2.10, -1.43, 15.07, 2.46, 2.28, 10.51, repro,
1997-03-04,-5.95, -2.76, 7.55, 2.39, 2.20, 9.45, repro,
1997-03-05,-0.84, 1.09, 4.46, 2.40, 2.09, 9.41, repro,
1997-03-06,-0.49, -2.06, 4.09, 2.44, 2.27, 10.38, repro,
1997-03-07,-1.55, -2.65, 5.97, 2.29, 2.13, 9.58, repro,
1997-03-08,-0.29, -0.02, 8.67, 2.50, 2.25, 10.54, repro,
1997-03-09,-0.16, -0.64, 9.73, 2.42, 2.13, 9.73, repro,
1997-03-10,-3.55, -2.09, 2.96, 2.39, 2.15, 9.40, repro,
1997-03-11,-1.65, -0.86, 8.82, 2.62, 2.56, 11.04, repro,
1997-03-12,-2.46, -0.50, 2.76, 2.38, 2.18, 9.76, repro,
1997-03-13,-2.44, -0.87, 7.11, 2.51, 2.15, 10.18, repro,
1997-03-14,-3.92, -3.23, 8.59, 2.42, 2.15, 10.13, repro,
1997-03-15,-2.02, -0.56, 17.99, 2.40, 2.11, 9.58, repro,
1997-03-16,-3.28, -2.06, 13.19, 2.20, 1.93, 8.66, repro,
1997-03-17,-1.78, -2.47, 8.84, 2.26, 2.03, 8.99, repro,
1997-03-18,-3.18, -3.20, 9.07, 2.31, 2.08, 9.38, repro,
1997-03-19,-2.57, -2.30, 7.35, 2.21, 1.94, 8.78, repro,
1997-03-20,-2.39, -1.87, 7.79, 2.21, 1.97, 8.85, repro,
1997-03-21,-1.84, -2.16, 10.78, 2.28, 2.07, 9.14, repro,
1997-03-22,-2.98, -3.04, 9.84, 2.23, 2.01, 9.14, repro,
1997-03-23,-0.23, -1.06, 7.88, 2.20, 1.96, 8.87, repro,
1997-03-24,-2.25, -1.21, -0.87, 2.27, 2.04, 9.35, repro,
1997-03-25,0.01, -0.31, 13.96, 2.21, 1.99, 8.86, repro,
1997-03-26,-0.41, -0.53, 9.19, 2.48, 2.07, 9.74, repro,
1997-03-27,25.10, -145.93, 300.57, 92.84, 551.59, 500.19, repro,
1997-03-28,-0.30, 0.18, 3.48, 2.21, 1.95, 8.88, repro,
1997-03-29,1.09, 0.57, 6.30, 2.21, 1.95, 8.90, repro,
1997-03-30,-1.05, -2.01, -1.32, 2.18, 1.91, 8.71, repro,
1997-03-31,-0.50, -2.53, 4.97, 2.23, 2.08, 9.15, repro,
1997-04-01,-2.00, -2.63, 3.70, 2.27, 2.02, 9.03, repro,
1997-04-02,-2.43, -1.88, 4.57, 2.50, 2.05, 9.77, repro,
1997-04-03,0.21, 0.54, 1.39, 2.22, 1.91, 8.71, repro,
1997-04-04,-0.20, -1.23, 17.70, 2.31, 2.04, 9.32, repro,
1997-04-05,-1.85, -1.46, 10.80, 2.37, 2.12, 9.50, repro,
1997-04-06,-2.07, -0.57, 13.20, 2.33, 2.05, 9.55, repro,
1997-04-07,-1.65, -0.15, 12.67, 2.37, 2.02, 9.45, repro,
1997-04-08,-2.91, 0.24, 6.75, 2.29, 1.98, 8.90, repro,
1997-04-09,-0.96, -2.60, 10.13, 2.42, 2.10, 9.53, repro,
1997-04-10,-1.42, -0.40, 10.07, 2.27, 1.98, 8.92, repro,
1997-04-11,-2.54, -1.14, 8.13, 2.25, 1.99, 9.01, repro,
1997-04-12,-2.85, -0.66, 15.84, 2.29, 1.96, 8.89, repro,
1997-04-13,-2.97, -0.49, 10.62, 2.29, 2.02, 8.96, repro,
1997-04-14,-1.22, -0.90, 19.80, 2.27, 1.97, 9.00, repro,
1997-04-15,-0.72, -1.57, 11.88, 2.29, 2.03, 9.10, repro,
1997-04-16,-1.75, -1.37, 14.88, 2.29, 2.05, 9.20, repro,
1997-04-17,-2.05, -3.34, 15.01, 2.27, 1.97, 9.01, repro,
1997-04-18,-1.67, -1.13, 9.41, 2.30, 2.05, 9.12, repro,
1997-04-19,-0.19, 1.15, 11.40, 2.29, 2.04, 9.11, repro,
1997-04-20,-0.99, -3.11, 16.23, 2.34, 2.06, 9.17, repro,
1997-04-21,-0.90, -2.72, 3.00, 2.26, 1.97, 8.97, repro,
1997-04-22,-0.61, -1.13, 11.19, 2.30, 1.97, 9.10, repro,
1997-04-23,0.92, 0.05, 8.30, 2.28, 1.98, 9.01, repro,
1997-04-24,0.20, -1.05, 2.43, 2.28, 1.99, 9.10, repro,
1997-04-25,0.56, 2.87, 9.07, 2.32, 2.02, 9.36, repro,
1997-04-26,-1.49, -2.00, 6.81, 2.27, 1.98, 9.04, repro,
1997-04-27,-2.34, 0.21, 10.79, 2.23, 1.94, 8.89, repro,
1997-04-28,0.40, 0.31, 6.64, 2.41, 2.20, 9.65, repro,
1997-04-29,-1.59, -2.92, 10.73, 2.33, 2.04, 9.19, repro,
1997-04-30,-0.66, -1.89, 16.45, 2.29, 2.00, 8.99, repro,
1997-05-01,-0.83, -2.15, 14.29, 2.51, 2.31, 10.58, repro,
1997-05-02,-0.25, -0.22, 5.08, 2.20, 1.93, 8.78, repro,
1997-05-03,-2.70, -1.74, 11.62, 2.30, 2.02, 9.14, repro,
1997-05-04,-1.24, -1.10, 20.30, 2.21, 1.96, 8.90, repro,
1997-05-05,-0.65, -0.73, 13.69, 2.37, 2.03, 9.35, repro,
1997-05-06,0.39, -1.07, 8.16, 2.28, 1.95, 9.13, repro,
1997-05-07,-3.41, -0.49, 9.17, 2.29, 2.08, 9.36, repro,
1997-05-08,-2.82, -2.82, 11.53, 2.20, 1.94, 8.81, repro,
1997-05-09,-1.13, -0.18, 17.37, 2.18, 1.92, 8.75, repro,
1997-05-10,-1.59, 0.72, 18.77, 2.30, 2.10, 9.18, repro,
1997-05-11,-1.71, 0.31, 16.46, 2.18, 1.94, 8.84, repro,
1997-05-12,-0.62, -1.83, 12.13, 2.18, 1.94, 8.91, repro,
1997-05-13,-1.58, -3.90, 24.13, 2.18, 1.93, 8.81, repro,
1997-05-14,-0.98, -1.84, 21.96, 2.19, 1.94, 8.89, repro,
1997-05-15,-0.53, -1.22, 22.67, 2.21, 1.94, 8.91, repro,
1997-05-16,-1.21, 0.45, 18.88, 2.20, 1.93, 8.85, repro,
1997-05-17,-1.29, -4.05, 19.54, 2.24, 2.03, 9.21, repro,
1997-05-18,-3.29, -2.83, 15.16, 2.32, 2.07, 9.34, repro,
1997-05-19,-4.68, -1.78, 26.51, 2.27, 2.06, 9.35, repro,
1997-05-20,-1.77, -2.96, 20.38, 2.44, 2.11, 9.90, repro,
1997-05-21,-0.45, -0.72, 16.96, 2.21, 2.01, 8.94, repro,
1997-05-22,-2.58, -0.06, 18.46, 2.21, 2.03, 9.01, repro,
1997-05-23,-2.65, -1.18, 24.16, 2.26, 2.09, 9.16, repro,
1997-05-24,-4.64, 0.90, 24.50, 2.17, 2.02, 8.89, repro,
1997-05-25,-3.52, 0.64, 23.42, 2.23, 2.05, 9.04, repro,
1997-05-26,-0.43, -2.04, 16.43, 2.32, 2.15, 9.50, repro,
1997-05-27,-3.45, -3.35, 18.76, 2.31, 2.21, 9.36, repro,
1997-05-28,-2.77, -1.06, 17.01, 2.24, 2.14, 9.16, repro,
1997-05-29,-4.17, -1.99, 22.27, 2.20, 1.98, 8.88, repro,
1997-05-30,0.11, -1.91, 14.91, 2.24, 1.99, 8.97, repro,
1997-05-31,-2.80, -1.50, 16.91, 2.79, 2.38, 10.77, repro,
1997-06-01,-1.25, -0.35, 19.86, 2.21, 1.99, 8.92, repro,
1997-06-02,0.41, -0.07, 17.36, 2.25, 2.11, 9.14, repro,
1997-06-03,-2.01, -0.68, 15.28, 2.21, 1.99, 8.99, repro,
1997-06-04,-0.37, -0.54, 19.17, 2.20, 1.98, 8.85, repro,
1997-06-05,1.45, 2.07, 10.23, 2.16, 1.92, 8.77, repro,
1997-06-06,0.09, -0.20, 21.23, 2.20, 1.99, 8.94, repro,
1997-06-07,-1.35, 1.35, 21.61, 2.27, 2.03, 9.18, repro,
1997-06-08,-1.53, -1.26, 17.41, 2.22, 2.00, 9.07, repro,
1997-06-09,-1.57, -1.06, 22.91, 2.29, 2.06, 9.20, repro,
1997-06-10,-1.66, -1.10, 17.37, 2.29, 2.14, 9.50, repro,
1997-06-11,-2.83, -2.03, 24.13, 2.30, 2.04, 9.21, repro,
1997-06-12,-2.61, -1.14, 20.02, 2.21, 1.97, 8.87, repro,
1997-06-13,-3.34, -1.41, 20.90, 2.22, 2.00, 9.04, repro,
1997-06-14,-0.94, -0.49, 19.15, 2.33, 2.21, 9.34, repro,
1997-06-15,-1.76, 0.02, 23.20, 2.22, 2.01, 8.96, repro,
1997-06-16,-0.20, -0.35, 22.08, 2.20, 2.00, 8.93, repro,
1997-06-17,-1.00, -1.14, 20.07, 2.21, 1.99, 8.87, repro,
1997-06-18,0.71, 0.14, 27.02, 2.23, 1.99, 8.89, repro,
1997-06-19,-2.78, -0.16, 22.49, 2.21, 1.98, 8.89, repro,
1997-06-20,-2.38, -0.01, 28.12, 2.43, 2.23, 9.72, repro,
1997-06-21,-0.18, 2.17, 25.75, 2.21, 1.98, 8.86, repro,
1997-06-22,-0.85, 0.47, 27.77, 2.28, 2.03, 9.23, repro,
1997-06-23,-0.03, -0.09, 18.97, 2.20, 2.01, 8.80, repro,
1997-06-24,-1.55, -1.93, 19.09, 2.23, 2.05, 8.96, repro,
1997-06-25,-0.77, -0.14, 21.60, 2.18, 2.00, 8.86, repro,
1997-06-26,-0.56, 0.55, 25.79, 2.15, 1.95, 8.69, repro,
1997-06-27,-1.98, -2.35, 24.65, 2.28, 2.03, 9.05, repro,
1997-06-28,-0.76, -0.32, 23.13, 2.25, 2.06, 9.17, repro,
1997-06-29,-1.51, -1.76, 31.80, 2.29, 2.09, 9.14, repro,
1997-06-30,-0.02, -0.21, 31.94, 2.17, 1.92, 8.74, repro,
1997-07-01,-1.88, -0.00, 19.80, 2.27, 1.97, 8.99, repro,
1997-07-02,-0.76, -0.47, 28.68, 2.23, 2.01, 8.95, repro,
1997-07-03,-0.91, -1.53, 24.91, 2.18, 1.92, 8.75, repro,
1997-07-04,-1.11, -1.70, 20.69, 2.26, 2.06, 9.18, repro,
1997-07-05,-0.50, 0.80, 6.57, 2.29, 2.03, 9.65, repro,
1997-07-06,-0.84, -1.88, 17.14, 2.23, 2.01, 9.04, repro,
1997-07-07,-0.88, -2.80, 26.61, 2.17, 1.94, 8.79, repro,
1997-07-08,-0.66, -0.56, 19.38, 2.20, 1.94, 8.93, repro,
1997-07-09,-0.72, -1.50, 26.74, 2.16, 1.91, 8.70, repro,
1997-07-10,-2.13, 0.25, 16.91, 2.17, 1.93, 8.90, repro,
1997-07-11,-2.54, -1.23, 23.28, 2.21, 2.02, 8.98, repro,
1997-07-12,-1.53, -0.06, 16.79, 2.19, 1.97, 8.87, repro,
1997-07-13,-0.57, -1.36, 18.41, 2.21, 1.99, 8.89, repro,
1997-07-14,-0.98, -2.04, 22.80, 2.23, 1.97, 8.90, repro,
1997-07-15,-1.82, -1.87, 13.49, 2.22, 1.97, 9.04, repro,
1997-07-16,-1.65, -1.84, 10.82, 2.24, 1.96, 9.21, repro,
1997-07-17,-1.30, -0.24, 18.86, 2.18, 1.95, 8.85, repro,
1997-07-18,-3.90, -2.02, 12.64, 2.16, 1.93, 8.81, repro,
1997-07-19,-0.22, -1.26, 15.01, 2.24, 1.99, 9.04, repro,
1997-07-20,-1.30, -1.91, 19.16, 2.28, 1.95, 9.14, repro,
1997-07-21,-0.30, -2.90, 20.25, 2.22, 2.00, 9.11, repro,
1997-07-22,-4.31, -0.98, 11.45, 2.20, 1.97, 8.97, repro,
1997-07-23,-2.81, -1.24, 19.42, 2.50, 2.19, 10.29, repro,
1997-07-24,-3.94, -1.70, 20.28, 2.38, 2.22, 9.76, repro,
1997-07-25,-0.34, -3.90, 14.68, 2.25, 2.01, 9.14, repro,
1997-07-26,-3.87, 0.70, 17.65, 2.34, 2.00, 9.60, repro,
1997-07-27,-0.34, -2.51, 19.52, 2.35, 2.06, 9.51, repro,
1997-07-28,-1.30, -0.12, 18.86, 2.26, 1.99, 9.21, repro,
1997-07-29,-2.78, -1.71, 27.39, 2.25, 1.95, 9.18, repro,
1997-07-30,-1.37, -3.70, 25.03, 2.25, 1.98, 9.19, repro,
1997-07-31,-0.65, -1.84, 21.86, 2.33, 2.07, 9.70, repro,
1997-08-01,-2.64, -1.39, 20.99, 2.22, 2.03, 9.33, repro,
1997-08-02,-2.43, -0.66, 14.82, 2.22, 2.01, 9.07, repro,
1997-08-03,-0.32, -0.87, 23.86, 2.25, 1.98, 9.16, repro,
1997-08-04,0.78, 1.13, 23.80, 2.45, 2.19, 10.40, repro,
1997-08-05,1.00, -0.20, 17.51, 2.24, 2.02, 9.08, repro,
1997-08-06,0.58, 4.05, 2.95, 2.42, 2.16, 9.88, repro,
1997-08-07,-0.46, -0.53, 10.63, 2.28, 2.02, 9.32, repro,
1997-08-08,-0.50, -0.15, 19.03, 2.37, 2.07, 9.83, repro,
1997-08-09,-0.90, 0.10, 15.63, 2.20, 2.00, 8.93, repro,
1997-08-10,-0.62, -1.32, 22.50, 2.22, 2.01, 9.02, repro,
1997-08-11,-2.41, -2.44, 22.69, 2.23, 2.02, 9.03, repro,
1997-08-12,-1.65, -0.91, 17.02, 2.30, 2.05, 9.49, repro,
1997-08-13,-1.32, -1.47, 21.86, 2.22, 2.02, 9.05, repro,
1997-08-14,-1.66, -4.01, 23.94, 2.22, 2.00, 9.07, repro,
1997-08-15,-0.67, -1.38, 9.66, 2.21, 1.96, 8.79, repro,
1997-08-16,0.02, -3.45, 20.40, 2.23, 1.97, 8.90, repro,
1997-08-17,-2.96, -1.13, 19.33, 2.28, 1.98, 9.27, repro,
1997-08-18,-1.59, -1.66, 13.53, 2.14, 1.94, 8.57, repro,
1997-08-19,-3.12, -0.64, 21.15, 2.23, 2.04, 9.30, repro,
1997-08-20,-0.61, -2.24, 22.01, 2.23, 2.05, 9.23, repro,
1997-08-21,-1.01, -1.42, 11.89, 2.15, 1.98, 8.78, repro,
1997-08-22,-1.35, -1.61, 17.94, 2.23, 2.04, 9.26, repro,
1997-08-23,1.21, -0.88, 25.72, 2.26, 2.07, 9.37, repro,
1997-08-24,-0.29, 0.63, 27.02, 2.20, 2.12, 9.15, repro,
1997-08-25,-1.82, -1.38, 15.21, 2.26, 2.11, 9.33, repro,
1997-08-26,-1.20, 0.62, 11.10, 2.14, 2.00, 8.86, repro,
1997-08-27,-1.23, -3.21, 22.67, 2.22, 2.02, 9.06, repro,
1997-08-28,-1.41, -2.11, 13.89, 2.19, 1.98, 8.89, repro,
1997-08-29,-1.70, -0.36, 19.10, 2.21, 1.97, 8.70, repro,
1997-08-30,-1.84, -3.67, 24.28, 2.14, 1.94, 8.59, repro,
1997-08-31,0.46, -0.75, 22.59, 2.21, 2.04, 8.92, repro,
1997-09-01,-2.21, -6.19, 29.66, 2.20, 1.98, 8.83, repro,
1997-09-02,-1.02, -1.02, 19.16, 2.26, 2.03, 9.01, repro,
1997-09-03,-0.01, -1.36, 15.29, 2.18, 2.00, 8.86, repro,
1997-09-04,-2.91, -3.92, 26.54, 2.38, 2.15, 9.42, repro,
1997-09-05,-1.54, 1.48, 23.27, 2.25, 2.14, 9.53, repro,
1997-09-06,-2.01, -0.82, 19.68, 2.12, 1.94, 8.67, repro,
1997-09-07,1.05, 0.44, 29.27, 2.12, 1.92, 8.60, repro,
1997-09-08,-0.16, -1.64, 23.36, 2.14, 1.93, 8.69, repro,
1997-09-09,-1.75, -0.41, 19.66, 2.43, 2.26, 9.97, repro,
1997-09-10,-1.93, -1.25, 12.46, 2.13, 1.89, 8.59, repro,
1997-09-11,-2.71, -1.39, 21.42, 2.25, 1.95, 9.37, repro,
1997-09-12,-0.98, -1.54, 28.41, 2.25, 1.95, 9.19, repro,
1997-09-13,-0.33, -0.20, 15.22, 2.18, 1.94, 8.81, repro,
1997-09-14,-1.49, -3.26, 27.69, 2.11, 1.94, 8.61, repro,
1997-09-15,-3.37, -3.46, 22.99, 2.14, 1.94, 8.60, repro,
1997-09-16,-0.42, 2.30, 24.00, 2.12, 1.95, 8.69, repro,
1997-09-17,-2.81, -0.66, 33.05, 2.12, 1.93, 8.58, repro,
1997-09-18,-2.53, -2.71, 26.15, 2.15, 1.98, 8.60, repro,
1997-09-19,-5.06, -3.18, 13.24, 2.10, 1.90, 8.48, repro,
1997-09-20,-2.31, -1.38, 19.55, 2.18, 2.09, 8.75, repro,
1997-09-21,-0.77, -0.81, 14.68, 2.10, 1.89, 8.40, repro,
1997-09-22,-1.57, 0.37, 17.97, 2.11, 1.95, 8.59, repro,
1997-09-23,0.58, 2.50, 10.24, 2.23, 1.96, 8.84, repro,
1997-09-24,-1.47, 2.77, 12.74, 2.19, 1.96, 8.85, repro,
1997-09-25,-0.81, 4.40, 10.19, 2.24, 2.04, 9.13, repro,
1997-09-26,-0.16, 0.21, 14.20, 2.18, 1.93, 8.81, repro,
1997-09-27,-1.13, -0.76, 28.73, 2.17, 2.08, 8.91, repro,
1997-09-28,-0.84, -2.89, 16.85, 2.21, 1.96, 9.03, repro,
1997-09-29,-1.80, -0.65, 24.22, 2.24, 2.01, 9.03, repro,
1997-09-30,-2.38, 1.49, 19.60, 2.14, 1.93, 8.59, repro,
1997-10-01,-1.39, -1.22, 21.00, 2.14, 1.94, 8.65, repro,
1997-10-02,-4.02, -1.13, 25.78, 2.19, 1.98, 8.66, repro,
1997-10-03,-0.85, -1.68, 22.70, 2.18, 1.93, 8.77, repro,
1997-10-04,-0.93, -0.16, 14.42, 2.27, 1.97, 9.09, repro,
1997-10-05,-1.11, -0.85, 23.43, 2.24, 2.02, 8.93, repro,
1997-10-06,-3.41, -1.78, 24.62, 2.21, 1.95, 8.83, repro,
1997-10-07,-5.67, -4.39, 4.27, 2.23, 1.95, 8.97, repro,
1997-10-08,-2.32, -0.90, 13.24, 2.19, 1.94, 8.89, repro,
1997-10-09,-1.14, 0.30, 10.85, 2.18, 1.93, 8.81, repro,
1997-10-10,-0.79, -1.78, 6.28, 2.24, 2.02, 9.01, repro,
1997-10-11,-2.03, -2.79, 10.11, 2.20, 1.91, 8.64, repro,
1997-10-12,-2.62, -1.71, 6.83, 2.23, 1.93, 8.85, repro,
1997-10-13,0.22, -0.52, 9.66, 2.21, 1.96, 8.77, repro,
1997-10-14,-0.29, 1.57, 17.04, 2.52, 2.21, 10.01, repro,
1997-10-15,-0.76, 0.48, 8.35, 2.47, 2.10, 9.73, repro,
1997-10-16,-1.76, -1.28, 10.00, 2.19, 1.99, 8.89, repro,
1997-10-17,-1.55, -1.14, 18.10, 2.42, 2.09, 9.77, repro,
1997-10-18,-3.12, 0.09, 10.83, 2.28, 1.97, 9.19, repro,
1997-10-19,-2.37, -0.18, 16.53, 2.29, 2.00, 9.25, repro,
1997-10-20,-1.83, -1.33, 14.43, 2.35, 2.00, 9.27, repro,
1997-10-21,-3.12, -3.01, 8.54, 2.30, 2.08, 9.31, repro,
1997-10-22,0.74, 2.31, 10.44, 2.32, 2.03, 9.40, repro,
1997-10-23,-1.89, 0.17, 8.03, 2.34, 2.01, 9.38, repro,
1997-10-24,-3.57, -1.20, 25.08, 2.27, 2.00, 9.19, repro,
1997-10-25,-8.81, -0.12, 12.46, 2.35, 2.05, 9.68, repro,
1997-10-26,-3.01, 1.46, 7.31, 2.21, 1.94, 8.93, repro,
1997-10-27,-1.82, -0.20, 6.46, 2.41, 2.06, 9.67, repro,
1997-10-28,-1.13, 0.64, 8.64, 2.43, 2.07, 9.57, repro,
1997-10-29,-0.10, -0.86, 10.57, 2.34, 2.07, 9.52, repro,
1997-10-30,-2.26, 0.07, 11.26, 2.30, 2.06, 9.37, repro,
1997-10-31,-1.32, -1.98, 10.18, 2.31, 2.05, 9.20, repro,
1997-11-01,-2.48, -1.75, 9.92, 2.20, 1.98, 9.12, repro,
1997-11-02,0.11, -0.01, 12.78, 2.27, 2.02, 9.27, repro,
1997-11-03,0.35, -0.18, 15.71, 2.41, 2.04, 9.67, repro,
1997-11-04,0.50, -0.28, 8.55, 2.36, 2.01, 9.42, repro,
1997-11-05,-1.12, -0.73, 10.40, 2.41, 2.07, 9.39, repro,
1997-11-06,0.58, -1.63, 2.18, 2.68, 2.29, 10.77, repro,
1997-11-07,-2.72, 0.15, 5.16, 2.44, 2.13, 9.63, repro,
1997-11-08,-0.69, -1.16, 7.93, 2.17, 1.96, 8.98, repro,
1997-11-09,-0.77, -1.90, 7.21, 2.26, 1.99, 9.20, repro,
1997-11-10,-2.84, -0.61, 3.01, 2.31, 2.06, 9.34, repro,
1997-11-11,-1.04, -0.90, 14.61, 2.28, 2.07, 9.33, repro,
1997-11-12,0.85, -1.00, 11.14, 2.26, 2.00, 9.10, repro,
1997-11-13,-0.65, -0.12, 23.76, 2.20, 1.98, 9.08, repro,
1997-11-14,0.31, -2.48, 5.67, 2.42, 2.16, 9.64, repro,
1997-11-15,-1.73, 0.31, 1.30, 2.29, 1.98, 9.09, repro,
1997-11-16,1.45, 0.75, 7.78, 2.36, 2.02, 9.37, repro,
1997-11-17,-0.54, -0.61, 10.69, 2.52, 2.17, 9.97, repro,
1997-11-18,2.38, -0.14, 10.06, 2.44, 2.18, 9.89, repro,
1997-11-19,-0.85, -4.19, 14.60, 2.32, 2.06, 9.53, repro,
1997-11-20,2.57, -3.30, 5.56, 2.56, 2.14, 9.85, repro,
1997-11-21,-0.23, -2.62, 10.95, 2.83, 2.32, 11.35, repro,
1997-11-22,-2.71, -4.14, 33.72, 2.54, 2.23, 10.51, repro,
1997-11-23,-2.00, 0.12, 15.80, 2.44, 2.09, 9.65, repro,
1997-11-24,-0.73, -0.14, 11.84, 2.61, 2.14, 10.27, repro,
1997-11-25,-1.57, -0.17, 11.58, 2.31, 2.06, 9.17, repro,
1997-11-26,1.76, -4.59, 9.33, 2.50, 2.12, 10.06, repro,
1997-11-27,-0.76, -1.83, 14.84, 2.29, 2.04, 9.24, repro,
1997-11-28,-0.56, -1.71, 17.47, 2.32, 2.01, 9.29, repro,
1997-11-29,0.84, -0.52, -1.23, 2.33, 2.00, 9.16, repro,
1997-11-30,-1.84, -0.48, 15.14, 2.21, 1.96, 8.75, repro,
1997-12-01,-0.87, -0.34, 7.69, 2.32, 1.99, 9.05, repro,
1997-12-02,0.13, -1.82, 15.18, 2.28, 1.96, 9.04, repro,
1997-12-03,-0.54, -1.08, 11.75, 2.33, 2.04, 9.69, repro,
1997-12-04,-0.51, -0.28, 7.15, 3.22, 2.90, 13.33, repro,
1997-12-08,1.60, -8.95, 10.89, 6.54, 6.15, 25.70, repro,
1997-12-09,0.44, -2.01, 9.64, 2.28, 2.09, 9.13, repro,
1997-12-10,2.65, 3.91, 2.95, 2.39, 2.07, 9.60, repro,
1997-12-11,0.56, 2.69, 2.01, 2.68, 2.28, 10.42, repro,
1997-12-12,1.87, -0.17, -0.65, 2.19, 1.95, 8.81, repro,
1997-12-13,1.28, 0.31, 1.41, 2.26, 1.93, 9.00, repro,
1997-12-14,-0.46, -0.33, 11.19, 2.29, 2.07, 9.39, repro,
1997-12-15,0.22, -1.49, 6.97, 2.68, 2.46, 11.27, repro,
1997-12-16,-0.32, -1.45, 9.80, 2.25, 1.93, 8.93, repro,
1997-12-17,0.16, -0.84, 10.31, 2.20, 1.88, 8.66, repro,
1997-12-18,-1.04, -1.31, 9.35, 2.19, 1.94, 8.61, repro,
1997-12-19,0.17, -2.43, 5.36, 2.14, 1.92, 8.34, repro,
1997-12-21,-0.83, -1.13, -4.28, 3.09, 2.78, 12.02, repro,
1997-12-22,2.91, 2.81, 1.57, 2.19, 1.95, 8.73, repro,
1997-12-23,2.96, 2.32, 9.89, 2.34, 2.12, 9.65, repro,
1997-12-24,0.76, -2.54, 7.53, 2.14, 1.90, 8.47, repro,
1997-12-25,-1.26, -1.70, 5.27, 2.29, 1.97, 8.94, repro,
1997-12-26,0.75, -0.11, -2.74, 2.22, 1.94, 8.80, repro,
1997-12-27,-0.71, -0.62, -1.44, 2.18, 2.02, 8.73, repro,
1997-12-28,-0.58, -1.58, -6.50, 2.25, 2.07, 9.00, repro,
1997-12-29,1.95, 1.28, -0.79, 2.61, 2.75, 10.90, repro,
1997-12-30,2.35, -2.83, 6.55, 2.28, 2.09, 9.16, repro,
1997-12-31,-2.66, -0.79, 1.07, 2.29, 2.22, 9.46, repro,
1998-01-01,-1.48, -1.80, 11.13, 2.33, 2.13, 9.24, repro,
1998-01-02,-0.47, -3.43, 13.11, 2.58, 2.29, 10.70, repro,
1998-01-03,-3.05, -4.14, 3.93, 2.22, 1.91, 8.92, repro,
1998-01-04,-1.01, -1.92, 6.72, 2.37, 2.11, 9.43, repro,
1998-01-05,-0.39, -3.18, 5.49, 2.35, 2.14, 9.26, repro,
1998-01-06,-1.21, -2.57, 7.67, 2.36, 2.19, 9.59, repro,
1998-01-07,-0.63, 0.71, 4.85, 2.34, 2.14, 9.14, repro,
1998-01-08,-1.38, -2.61, 6.13, 2.30, 2.11, 9.40, repro,
1998-01-09,-0.32, -1.46, 5.55, 2.13, 1.95, 8.54, repro,
1998-01-10,-0.42, -2.69, -1.83, 2.19, 1.98, 8.84, repro,
1998-01-11,0.38, -1.17, 0.68, 2.22, 2.09, 8.85, repro,
1998-01-12,-0.15, -0.85, 0.70, 2.28, 2.07, 9.26, repro,
1998-01-13,0.76, -1.42, -2.84, 2.36, 2.18, 9.58, repro,
1998-01-14,-0.21, -2.77, 5.56, 2.17, 2.02, 8.81, repro,
1998-01-15,1.42, -1.74, 13.53, 2.27, 2.06, 9.13, repro,
1998-01-16,0.41, -2.13, 10.01, 2.36, 2.29, 9.43, repro,
1998-01-17,0.92, -2.58, 8.02, 2.16, 1.99, 8.66, repro,
1998-01-18,-1.28, -1.61, 1.82, 2.18, 1.93, 8.77, repro,
1998-01-19,-1.35, -2.05, 1.63, 2.14, 1.91, 8.42, repro,
1998-01-20,-1.57, -0.45, 5.76, 2.18, 1.97, 8.68, repro,
1998-01-21,-0.51, -0.81, 1.66, 2.17, 1.93, 8.72, repro,
1998-01-22,-0.97, -0.78, 5.22, 2.17, 2.03, 8.92, repro,
1998-01-23,-0.45, -2.73, 2.73, 2.29, 2.11, 9.83, repro,
1998-01-24,-2.59, -2.19, 6.07, 2.24, 2.03, 9.02, repro,
1998-01-25,-0.41, -1.79, 7.78, 2.12, 1.89, 8.37, repro,
1998-01-26,-0.85, -0.80, -4.42, 2.17, 1.99, 8.60, repro,
1998-01-27,-1.28, -0.78, 0.21, 2.15, 1.93, 8.54, repro,
1998-01-28,-0.42, -0.86, 8.00, 2.23, 1.92, 8.93, repro,
1998-01-29,0.64, -0.07, 1.98, 2.20, 1.87, 8.59, repro,
1998-01-30,-1.40, -2.42, -5.87, 2.25, 1.93, 9.02, repro,
1998-01-31,-1.23, -2.07, 6.08, 2.14, 1.92, 8.41, repro,
1998-02-01,-0.13, -1.18, 9.14, 2.21, 1.91, 8.63, repro,
1998-02-02,-1.60, -2.06, 10.50, 2.11, 1.87, 8.26, repro,
1998-02-03,0.65, -0.14, 6.81, 2.11, 1.85, 8.21, repro,
1998-02-04,-3.94, -6.59, 0.72, 2.43, 2.09, 9.75, repro,
1998-02-05,0.03, -2.05, 7.52, 2.25, 2.04, 9.14, repro,
1998-02-06,-1.86, -2.92, 12.98, 2.22, 2.08, 8.90, repro,
1998-02-07,-2.10, -4.04, 1.13, 2.15, 1.93, 8.47, repro,
1998-02-08,-1.60, -4.93, 1.24, 2.20, 1.97, 8.85, repro,
1998-02-09,0.13, -2.40, -3.29, 2.27, 2.08, 9.38, repro,
1998-02-10,-0.05, -1.73, -2.36, 2.24, 1.99, 8.96, repro,
1998-02-11,-1.30, -3.24, 3.59, 2.27, 1.97, 9.17, repro,
1998-02-12,0.19, -0.40, 17.82, 2.20, 1.95, 8.77, repro,
1998-02-13,-1.47, 0.71, -0.87, 2.10, 1.88, 8.41, repro,
1998-02-14,0.37, -2.18, 8.60, 2.18, 1.89, 8.75, repro,
1998-02-15,-0.97, -3.70, 0.72, 2.17, 2.00, 8.77, repro,
1998-02-16,-2.17, -0.28, 2.52, 2.18, 1.98, 8.73, repro,
1998-02-17,-0.18, -2.70, 5.77, 2.26, 2.00, 9.13, repro,
1998-02-18,-0.90, -2.12, 6.27, 2.34, 2.05, 9.26, repro,
1998-02-19,0.54, -0.76, -0.75, 2.20, 2.00, 9.00, repro,
1998-02-20,-1.34, -0.57, -4.33, 2.24, 2.01, 9.21, repro,
1998-02-21,0.34, -0.71, -3.51, 2.18, 1.97, 8.96, repro,
1998-02-22,-1.33, -4.60, 14.13, 2.22, 1.96, 9.13, repro,
1998-02-23,-3.17, -8.94, 8.07, 2.10, 1.88, 8.45, repro,
1998-02-24,2.22, -3.20, 5.23, 2.12, 1.91, 8.49, repro,
1998-02-25,2.47, -2.82, 1.18, 2.24, 2.04, 8.95, repro,
1998-02-26,0.30, -5.42, 24.15, 3.01, 2.61, 12.42, repro,
1998-02-27,1.10, -2.47, -1.86, 2.30, 2.18, 9.42, repro,
1998-02-28,0.25, 0.30, -3.95, 2.19, 1.97, 8.89, repro,
1998-03-01,0.73, -0.74, -2.44, 2.28, 2.04, 9.01, repro,
1998-03-02,-0.89, -0.27, 3.53, 2.52, 2.27, 10.19, repro,
1998-03-03,-0.22, -0.77, 8.27, 2.79, 2.63, 12.24, repro,
1998-03-04,1.40, 1.55, -8.38, 2.41, 2.23, 10.07, repro,
1998-03-05,0.43, -0.14, -2.03, 2.13, 1.88, 8.39, repro,
1998-03-06,-1.77, -6.35, 2.04, 2.09, 1.87, 8.30, repro,
1998-03-07,-0.84, -2.34, -4.10, 2.10, 1.92, 8.37, repro,
1998-03-08,-1.88, -3.11, -3.45, 2.49, 2.43, 10.66, repro,
1998-03-09,-0.52, -1.92, -4.38, 2.63, 2.73, 11.17, repro,
1998-03-10,0.47, -1.91, -5.60, 2.44, 2.30, 10.35, repro,
1998-03-11,0.61, -2.00, 0.08, 2.48, 2.35, 10.63, repro,
1998-03-12,-0.72, -1.60, 1.39, 2.23, 2.00, 8.95, repro,
1998-03-13,-1.52, -1.12, -4.30, 2.12, 1.93, 8.50, repro,
1998-03-14,2.32, 1.70, -7.61, 2.12, 1.94, 8.56, repro,
1998-03-15,5.07, 2.92, -2.53, 2.13, 1.93, 8.61, repro,
1998-03-16,-0.53, -1.13, -7.30, 2.11, 1.92, 8.47, repro,
1998-03-17,0.54, 0.98, 3.94, 2.87, 2.80, 13.03, repro,
1998-03-18,-0.26, -0.71, 3.29, 2.54, 2.21, 10.33, repro,
1998-03-19,-1.39, -5.61, 7.39, 3.52, 3.95, 15.69, repro,
1998-03-20,-0.60, -1.43, -1.04, 2.20, 2.01, 8.81, repro,
1998-03-21,-0.75, 0.18, 0.05, 2.23, 2.02, 8.74, repro,
1998-03-22,-0.74, -0.63, -5.22, 2.54, 2.21, 10.37, repro,
1998-03-23,1.62, -0.64, 0.48, 2.23, 2.02, 9.09, repro,
1998-03-24,1.40, -1.46, 5.03, 2.12, 1.92, 8.36, repro,
1998-03-25,0.41, -2.22, 0.79, 2.13, 1.93, 8.48, repro,
1998-03-26,-2.09, -2.00, -4.50, 2.17, 1.88, 8.47, repro,
1998-03-27,-1.58, -2.66, 0.27, 2.24, 2.05, 8.96, repro,
1998-03-28,-2.17, -3.74, 1.69, 2.09, 1.87, 8.23, repro,
1998-03-29,-1.48, -2.74, 4.90, 2.19, 1.98, 8.80, repro,
1998-03-30,-0.56, -1.17, 2.95, 2.19, 2.01, 8.97, repro,
1998-03-31,0.13, -1.40, 1.18, 2.39, 2.15, 9.75, repro,
1998-04-01,-3.10, -4.39, -1.26, 2.15, 1.92, 8.58, repro,
1998-04-02,-2.46, -1.14, -5.30, 2.20, 1.99, 8.69, repro,
1998-04-03,1.47, -3.15, -4.69, 2.16, 1.97, 8.65, repro,
1998-04-04,-1.64, -3.02, 7.39, 2.18, 1.96, 8.68, repro,
1998-04-05,0.68, -2.10, -1.23, 2.12, 1.93, 8.54, repro,
1998-04-06,-2.48, -4.86, -3.83, 2.24, 2.07, 9.00, repro,
1998-04-07,-2.22, -10.10, -6.17, 2.30, 2.15, 9.25, repro,
1998-04-08,0.41, -2.04, -10.70, 2.22, 2.04, 8.96, repro,
1998-04-09,-1.54, -0.19, 0.50, 2.24, 2.03, 8.83, repro,
1998-04-10,-1.32, -2.19, 1.83, 2.20, 1.95, 8.78, repro,
1998-04-11,-3.05, -3.17, 4.03, 2.26, 2.06, 8.94, repro,
1998-04-12,-3.13, -5.86, -0.04, 2.26, 1.96, 8.94, repro,
1998-04-13,-1.17, -2.69, -3.71, 2.21, 1.96, 8.73, repro,
1998-04-14,-3.40, -6.04, -8.63, 2.10, 1.89, 8.26, repro,